QPF
0.02 0.01 0.01 0.01 0.00 0.00 0.00 0.00 0.00 0.01 0.01 0.02 0.02 0.01 0.00 0.00 0.00 0.00 0.01 0.01 0.02 0.02 0.03 0.03 0.02 0.02 0.03 0.03 0.03 0.03 0.03 0.04 0.04 0.04 0.04 0.03 0.02 0.02 0.02 0.03 0.03 0.03 0.03
0.01 0.02 0.02 0.02 0.01 0.01 0.00 0.00 0.01 0.02 0.02 0.02 0.02 0.02 0.01 0.01 0.01 0.01 0.01 0.02 0.02 0.01 0.02 0.02 0.02 0.02 0.02 0.02 0.03 0.02 0.02 0.03 0.04 0.05 0.05 0.04 0.03 0.02 0.03 0.03 0.03 0.03 0.03
0.01 0.01 0.01 0.01 0.01 0.02 0.01 0.01 0.02 0.02 0.03 0.04 0.04 0.03 0.03 0.02 0.03 0.03 0.02 0.01 0.01 0.01 0.01 0.01 0.02 0.02 0.02 0.02 0.04 0.03 0.03 0.03 0.03 0.03 0.04 0.04 0.04 0.04 0.04 0.04 0.04 0.04 0.04
0.00 0.00 0.00 0.01 0.01 0.01 0.02 0.02 0.02 0.03 0.03 0.04 0.06 0.05 0.04 0.03 0.03 0.03 0.03 0.03 0.02 0.01 0.01 0.01 0.01 0.01 0.02 0.04 0.05 0.06 0.05 0.04 0.03 0.03 0.03 0.04 0.05 0.05 0.04 0.04 0.04 0.05 0.05
0.00 0.00 0.00 0.01 0.01 0.01 0.01 0.02 0.02 0.03 0.04 0.05 0.07 0.08 0.08 0.06 0.04 0.03 0.03 0.03 0.03 0.02 0.01 0.01 0.01 0.01 0.01 0.03 0.04 0.03 0.03 0.03 0.03 0.03 0.03 0.03 0.03 0.03 0.04 0.04 0.06 0.07 0.07
0.01 0.00 0.00 0.00 0.01 0.01 0.02 0.02 0.02 0.03 0.04 0.06 0.08 0.08 0.08 0.08 0.08 0.06 0.04 0.02 0.02 0.01 0.01 0.01 0.00 0.00 0.00 0.01 0.01 0.02 0.02 0.02 0.02 0.02 0.02 0.02 0.02 0.03 0.03 0.04 0.05 0.07 0.08
0.01 0.00 0.00 0.00 0.01 0.01 0.02 0.02 0.02 0.03 0.03 0.04 0.05 0.05 0.06 0.06 0.06 0.07 0.06 0.03 0.02 0.01 0.01 0.01 0.01 0.01 0.00 0.00 0.00 0.01 0.02 0.03 0.03 0.02 0.02 0.02 0.02 0.03 0.04 0.03 0.03 0.04 0.06
0.01 0.01 0.01 0.01 0.01 0.01 0.01 0.01 0.02 0.02 0.02 0.03 0.03 0.04 0.04 0.06 0.05 0.04 0.04 0.04 0.03 0.01 0.01 0.01 0.01 0.01 0.01 0.00 0.01 0.01 0.01 0.02 0.03 0.03 0.04 0.04 0.03 0.03 0.04 0.04 0.03 0.02 0.03
0.02 0.02 0.01 0.01 0.01 0.01 0.01 0.01 0.01 0.01 0.02 0.02 0.03 0.03 0.03 0.04 0.05 0.04 0.02 0.02 0.01 0.01 0.01 0.01 0.01 0.01 0.01 0.01 0.01 0.01 0.01 0.01 0.02 0.02 0.04 0.04 0.05 0.06 0.05 0.05 0.05 0.03 0.03
0.03 0.02 0.02 0.02 0.02 0.02 0.01 0.01 0.01 0.01 0.02 0.02 0.02 0.02 0.02 0.02 0.03 0.05 0.03 0.02 0.01 0.01 0.01 0.00 0.00 0.00 0.00 0.00 0.00 0.00 0.00 0.01 0.01 0.02 0.03 0.03 0.05 0.07 0.09 0.08 0.07 0.05 0.04
0.05 0.05 0.05 0.05 0.05 0.03 0.03 0.03 0.03 0.03 0.02 0.02 0.02 0.02 0.01 0.01 0.02 0.04 0.04 0.03 0.01 0.01 0.01 0.00 0.00 0.00 0.00 0.00 0.00 0.00 0.00 0.00 0.00 0.01 0.01 0.02 0.03 0.04 0.07 0.10 0.11 0.10 0.07
0.08 0.09 0.10 0.08 0.07 0.05 0.04 0.03 0.04 0.04 0.03 0.03 0.03 0.03 0.02 0.01 0.01 0.01 0.02 0.02 0.01 0.01 0.00 0.00 0.01 0.01 0.00 0.00 0.00 0.00 0.00 0.00 0.00 0.01 0.01 0.02 0.02 0.02 0.03 0.06 0.10 0.13 0.11
0.06 0.06 0.05 0.05 0.05 0.04 0.03 0.02 0.03 0.03 0.03 0.02 0.02 0.02 0.02 0.01 0.01 0.01 0.01 0.01 0.01 0.00 0.00 0.00 0.00 0.00 0.00 0.00 0.00 0.00 0.00 0.00 0.00 0.01 0.01 0.01 0.02 0.02 0.02 0.04 0.05 0.10 0.13
0.06 0.05 0.05 0.05 0.04 0.03 0.02 0.02 0.02 0.02 0.02 0.02 0.02 0.02 0.02 0.02 0.01 0.02 0.02 0.01 0.01 0.01 0.00 0.00 0.00 0.00 0.00 0.01 0.00 0.00 0.00 0.00 0.00 0.00 0.01 0.01 0.01 0.02 0.03 0.04 0.05 0.08 0.10
0.04 0.04 0.04 0.04 0.04 0.04 0.03 0.03 0.02 0.02 0.02 0.02 0.02 0.02 0.03 0.02 0.02 0.02 0.01 0.01 0.01 0.01 0.00 0.00 0.00 0.00 0.00 0.01 0.01 0.00 0.00 0.00 0.00 0.01 0.01 0.02 0.03 0.03 0.04 0.04 0.04 0.04 0.05
0.02 0.02 0.02 0.02 0.02 0.03 0.03 0.03 0.03 0.02 0.02 0.02 0.02 0.02 0.02 0.01 0.01 0.01 0.01 0.01 0.01 0.01 0.01 0.00 0.00 0.00 0.01 0.01 0.01 0.01 0.01 0.01 0.01 0.01 0.01 0.02 0.02 0.02 0.03 0.03 0.03 0.03 0.03
0.01 0.01 0.01 0.01 0.01 0.01 0.02 0.02 0.02 0.02 0.02 0.02 0.02 0.02 0.02 0.02 0.01 0.01 0.01 0.01 0.01 0.01 0.01 0.00 0.00 0.01 0.01 0.01 0.01 0.01 0.01 0.01 0.01 0.01 0.01 0.02 0.02 0.02 0.03 0.03 0.03 0.03 0.03
0.01 0.00 0.01 0.01 0.01 0.01 0.01 0.02 0.02 0.02 0.02 0.02 0.03 0.03 0.02 0.02 0.01 0.01 0.01 0.01 0.01 0.01 0.01 0.01 0.00 0.00 0.00 0.01 0.02 0.02 0.01 0.01 0.01 0.02 0.02 0.02 0.02 0.03 0.03 0.03 0.03 0.03 0.03
0.01 0.01 0.01 0.00 0.00 0.00 0.00 0.01 0.01 0.01 0.01 0.02 0.02 0.02 0.03 0.03 0.03 0.02 0.01 0.01 0.01 0.01 0.01 0.01 0.01 0.00 0.00 0.00 0.01 0.02 0.02 0.02 0.02 0.02 0.03 0.02 0.02 0.03 0.03 0.03 0.04 0.04 0.04
0.01 0.01 0.01 0.00 0.00 0.00 0.00 0.01 0.03 0.02 0.02 0.02 0.02 0.02 0.02 0.02 0.03 0.02 0.02 0.02 0.01 0.01 0.01 0.02 0.01 0.01 0.01 0.00 0.01 0.01 0.01 0.02 0.02 0.02 0.02 0.02 0.02 0.02 0.03 0.03 0.04 0.04 0.05
0.01 0.01 0.01 0.01 0.01 0.01 0.01 0.01 0.02 0.02 0.03 0.03 0.03 0.02 0.02 0.02 0.02 0.02 0.02 0.02 0.02 0.02 0.02 0.02 0.02 0.01 0.01 0.00 0.00 0.01 0.01 0.01 0.01 0.01 0.01 0.01 0.02 0.02 0.03 0.04 0.05 0.05 0.06
0.01 0.01 0.01 0.01 0.01 0.01 0.01 0.01 0.01 0.02 0.02 0.02 0.03 0.03 0.02 0.02 0.02 0.02 0.02 0.02 0.02 0.02 0.02 0.02 0.02 0.01 0.01 0.01 0.01 0.01 0.01 0.02 0.01 0.01 0.01 0.01 0.02 0.02 0.03 0.03 0.05 0.06 0.07
0.01 0.01 0.01 0.01 0.01 0.01 0.01 0.01 0.01 0.01 0.02 0.01 0.01 0.02 0.02 0.02 0.02 0.02 0.02 0.02 0.02 0.01 0.01 0.02 0.02 0.02 0.01 0.01 0.01 0.02 0.02 0.02 0.01 0.01 0.02 0.02 0.02 0.03 0.03 0.04 0.05 0.06 0.07
0.01 0.01 0.01 0.01 0.01 0.01 0.01 0.01 0.01 0.01 0.01 0.01 0.00 0.01 0.01 0.01 0.01 0.01 0.02 0.02 0.02 0.02 0.01 0.01 0.01 0.01 0.02 0.02 0.02 0.03 0.03 0.03 0.02 0.01 0.02 0.02 0.02 0.03 0.04 0.05 0.06 0.07 0.08
0.01 0.01 0.01 0.01 0.01 0.01 0.01 0.01 0.01 0.01 0.01 0.01 0.00 0.00 0.01 0.01 0.01 0.01 0.02 0.02 0.02 0.02 0.02 0.02 0.02 0.02 0.03 0.03 0.03 0.03 0.03 0.04 0.03 0.02 0.02 0.03 0.02 0.03 0.06 0.07 0.08 0.08 0.07
0.01 0.00 0.00 0.00 0.00 0.00 0.01 0.01 0.01 0.01 0.01 0.01 0.01 0.01 0.01 0.01 0.01 0.02 0.02 0.02 0.02 0.02 0.01 0.02 0.02 0.02 0.02 0.03 0.03 0.03 0.03 0.05 0.04 0.03 0.01 0.02 0.02 0.04 0.06 0.06 0.07 0.08 0.07
MSLP
1014.71 1015.06 1015.34 1015.57 1015.79 1016.01 1016.26 1016.53 1016.83 1017.14 1017.45 1017.72 1017.96 1018.15 1018.29 1018.39 1018.46 1018.51 1018.57 1018.62 1018.70 1018.78 1018.89 1019.02 1019.17 1019.32 1019.48 1019.63 1019.77 1019.89 1019.97 1020.01 1020.02 1020.00 1019.97 1019.92 1019.86 1019.79 1019.71 1019.62 1019.50 1019.35 1019.19
1014.27 1014.64 1014.97 1015.27 1015.56 1015.86 1016.16 1016.48 1016.80 1017.12 1017.41 1017.67 1017.89 1018.05 1018.17 1018.24 1018.29 1018.32 1018.34 1018.38 1018.43 1018.51 1018.61 1018.74 1018.88 1019.05 1019.21 1019.37 1019.51 1019.62 1019.70 1019.75 1019.76 1019.76 1019.75 1019.74 1019.72 1019.70 1019.68 1019.64 1019.57 1019.48 1019.36
1013.70 1014.09 1014.47 1014.85 1015.23 1015.62 1016.00 1016.38 1016.74 1017.07 1017.36 1017.61 1017.79 1017.93 1018.02 1018.07 1018.09 1018.10 1018.10 1018.12 1018.15 1018.22 1018.32 1018.46 1018.61 1018.79 1018.97 1019.14 1019.29 1019.40 1019.48 1019.53 1019.55 1019.55 1019.56 1019.58 1019.60 1019.63 1019.66 1019.67 1019.66 1019.62 1019.54
1013.05 1013.46 1013.89 1014.34 1014.82 1015.30 1015.77 1016.21 1016.62 1016.97 1017.27 1017.50 1017.67 1017.78 1017.85 1017.88 1017.88 1017.87 1017.86 1017.86 1017.89 1017.96 1018.06 1018.20 1018.38 1018.57 1018.77 1018.95 1019.11 1019.23 1019.32 1019.36 1019.39 1019.40 1019.42 1019.46 1019.51 1019.57 1019.64 1019.70 1019.73 1019.73 1019.69
1012.38 1012.78 1013.25 1013.78 1014.33 1014.89 1015.44 1015.94 1016.39 1016.78 1017.08 1017.31 1017.48 1017.59 1017.65 1017.67 1017.67 1017.65 1017.64 1017.64 1017.67 1017.73 1017.84 1017.99 1018.17 1018.38 1018.60 1018.80 1018.97 1019.11 1019.20 1019.25 1019.29 1019.31 1019.34 1019.38 1019.45 1019.54 1019.63 1019.71 1019.77 1019.80 1019.79
1011.72 1012.11 1012.60 1013.15 1013.76 1014.38 1014.98 1015.54 1016.02 1016.43 1016.76 1017.01 1017.19 1017.32 1017.39 1017.44 1017.45 1017.45 1017.44 1017.44 1017.47 1017.53 1017.64 1017.79 1017.98 1018.19 1018.42 1018.64 1018.83 1018.98 1019.09 1019.17 1019.21 1019.25 1019.29 1019.35 1019.43 1019.52 1019.62 1019.72 1019.80 1019.84 1019.83
1011.08 1011.45 1011.92 1012.48 1013.10 1013.74 1014.37 1014.95 1015.46 1015.90 1016.26 1016.54 1016.77 1016.94 1017.06 1017.14 1017.19 1017.22 1017.23 1017.25 1017.27 1017.33 1017.42 1017.56 1017.75 1017.96 1018.19 1018.42 1018.63 1018.81 1018.95 1019.05 1019.13 1019.19 1019.26 1019.34 1019.43 1019.53 1019.64 1019.74 1019.81 1019.85 1019.84
1010.48 1010.80 1011.23 1011.76 1012.36 1012.98 1013.60 1014.18 1014.70 1015.16 1015.55 1015.89 1016.17 1016.40 1016.59 1016.74 1016.85 1016.93 1016.97 1017.00 1017.02 1017.07 1017.15 1017.27 1017.44 1017.65 1017.88 1018.11 1018.34 1018.55 1018.73 1018.87 1019.00 1019.11 1019.22 1019.33 1019.45 1019.57 1019.68 1019.77 1019.84 1019.86 1019.84
1009.90 1010.16 1010.54 1011.00 1011.54 1012.11 1012.68 1013.23 1013.75 1014.22 1014.64 1015.03 1015.38 1015.70 1015.97 1016.20 1016.38 1016.50 1016.59 1016.64 1016.67 1016.71 1016.78 1016.89 1017.04 1017.23 1017.46 1017.70 1017.95 1018.19 1018.42 1018.62 1018.81 1018.98 1019.15 1019.31 1019.47 1019.61 1019.74 1019.83 1019.88 1019.89 1019.86
1009.35 1009.55 1009.85 1010.23 1010.68 1011.17 1011.68 1012.18 1012.66 1013.13 1013.57 1014.00 1014.42 1014.81 1015.16 1015.47 1015.72 1015.90 1016.04 1016.12 1016.18 1016.23 1016.30 1016.40 1016.54 1016.73 1016.96 1017.22 1017.49 1017.77 1018.04 1018.31 1018.56 1018.80 1019.04 1019.26 1019.47 1019.65 1019.79 1019.89 1019.94 1019.94 1019.89
1008.82 1008.97 1009.19 1009.50 1009.85 1010.25 1010.66 1011.09 1011.52 1011.96 1012.40 1012.86 1013.31 1013.75 1014.17 1014.54 1014.86 1015.10 1015.29 1015.42 1015.52 1015.61 1015.70 1015.83 1015.99 1016.20 1016.45 1016.73 1017.02 1017.34 1017.65 1017.97 1018.29 1018.59 1018.90 1019.18 1019.43 1019.65 1019.82 1019.94 1019.99 1019.98 1019.92
1008.34 1008.44 1008.61 1008.83 1009.10 1009.39 1009.71 1010.05 1010.41 1010.80 1011.21 1011.66 1012.12 1012.58 1013.03 1013.44 1013.80 1014.10 1014.35 1014.55 1014.71 1014.87 1015.03 1015.22 1015.44 1015.69 1015.98 1016.29 1016.62 1016.96 1017.31 1017.66 1018.02 1018.38 1018.73 1019.06 1019.36 1019.61 1019.81 1019.93 1019.99 1019.98 1019.92
1007.92 1008.00 1008.12 1008.27 1008.46 1008.66 1008.88 1009.13 1009.40 1009.72 1010.08 1010.47 1010.90 1011.34 1011.79 1012.21 1012.60 1012.94 1013.25 1013.53 1013.79 1014.05 1014.32 1014.61 1014.92 1015.26 1015.60 1015.96 1016.32 1016.68 1017.05 1017.42 1017.80 1018.18 1018.56 1018.91 1019.24 1019.51 1019.72 1019.85 1019.91 1019.91 1019.85
1007.55 1007.62 1007.71 1007.82 1007.94 1008.06 1008.20 1008.35 1008.54 1008.77 1009.05 1009.37 1009.73 1010.11 1010.51 1010.91 1011.30 1011.68 1012.05 1012.42 1012.80 1013.19 1013.60 1014.03 1014.47 1014.91 1015.34 1015.75 1016.14 1016.52 1016.89 1017.26 1017.63 1018.01 1018.38 1018.74 1019.06 1019.34 1019.55 1019.69 1019.75 1019.75 1019.70
1007.22 1007.29 1007.37 1007.45 1007.52 1007.58 1007.65 1007.73 1007.83 1007.97 1008.15 1008.37 1008.64 1008.94 1009.27 1009.62 1010.00 1010.39 1010.82 1011.29 1011.79 1012.33 1012.89 1013.48 1014.06 1014.62 1015.14 1015.62 1016.05 1016.44 1016.81 1017.16 1017.50 1017.85 1018.20 1018.54 1018.85 1019.11 1019.32 1019.45 1019.52 1019.52 1019.47
1006.92 1006.98 1007.04 1007.10 1007.14 1007.16 1007.18 1007.19 1007.23 1007.28 1007.37 1007.50 1007.67 1007.88 1008.12 1008.41 1008.75 1009.16 1009.63 1010.18 1010.79 1011.47 1012.20 1012.94 1013.66 1014.34 1014.96 1015.51 1015.97 1016.38 1016.73 1017.06 1017.38 1017.69 1018.01 1018.32 1018.61 1018.86 1019.05 1019.18 1019.24 1019.25 1019.20
1006.61 1006.65 1006.69 1006.72 1006.74 1006.73 1006.72 1006.70 1006.68 1006.68 1006.70 1006.74 1006.82 1006.94 1007.10 1007.33 1007.63 1008.03 1008.53 1009.14 1009.85 1010.64 1011.49 1012.36 1013.21 1014.00 1014.70 1015.30 1015.81 1016.23 1016.58 1016.90 1017.20 1017.50 1017.80 1018.09 1018.37 1018.60 1018.78 1018.91 1018.97 1018.97 1018.94
1006.28 1006.26 1006.27 1006.27 1006.26 1006.24 1006.21 1006.17 1006.12 1006.08 1006.06 1006.04 1006.06 1006.11 1006.21 1006.39 1006.66 1007.04 1007.55 1008.19 1008.96 1009.82 1010.76 1011.71 1012.65 1013.51 1014.28 1014.93 1015.48 1015.93 1016.30 1016.63 1016.95 1017.25 1017.56 1017.86 1018.14 1018.38 1018.56 1018.68 1018.74 1018.75 1018.71
1005.93 1005.84 1005.78 1005.74 1005.70 1005.66 1005.61 1005.56 1005.50 1005.45 1005.40 1005.36 1005.34 1005.36 1005.42 1005.56 1005.80 1006.17 1006.68 1007.33 1008.12 1009.01 1009.98 1010.98 1011.95 1012.86 1013.66 1014.36 1014.94 1015.43 1015.85 1016.23 1016.59 1016.94 1017.29 1017.63 1017.94 1018.20 1018.40 1018.53 1018.58 1018.59 1018.55
1005.58 1005.40 1005.26 1005.15 1005.06 1004.99 1004.92 1004.85 1004.78 1004.73 1004.67 1004.63 1004.61 1004.62 1004.67 1004.81 1005.04 1005.39 1005.89 1006.54 1007.31 1008.20 1009.16 1010.15 1011.12 1012.03 1012.86 1013.58 1014.20 1014.75 1015.24 1015.69 1016.14 1016.58 1017.01 1017.41 1017.78 1018.08 1018.31 1018.45 1018.51 1018.50 1018.45
1005.29 1005.00 1004.76 1004.57 1004.41 1004.28 1004.16 1004.06 1003.98 1003.91 1003.85 1003.82 1003.80 1003.83 1003.90 1004.05 1004.29 1004.65 1005.14 1005.77 1006.52 1007.38 1008.30 1009.25 1010.19 1011.09 1011.91 1012.65 1013.32 1013.94 1014.51 1015.07 1015.62 1016.17 1016.71 1017.21 1017.65 1018.01 1018.28 1018.43 1018.49 1018.46 1018.38
1005.10 1004.70 1004.36 1004.07 1003.82 1003.60 1003.41 1003.25 1003.11 1003.01 1002.93 1002.89 1002.89 1002.94 1003.04 1003.22 1003.49 1003.87 1004.37 1004.99 1005.72 1006.54 1007.42 1008.32 1009.23 1010.09 1010.91 1011.68 1012.39 1013.08 1013.75 1014.41 1015.09 1015.76 1016.41 1017.01 1017.54 1017.97 1018.27 1018.44 1018.49 1018.44 1018.32
1005.06 1004.57 1004.13 1003.74 1003.37 1003.04 1002.74 1002.47 1002.24 1002.07 1001.94 1001.88 1001.87 1001.93 1002.07 1002.29 1002.60 1003.02 1003.54 1004.17 1004.89 1005.69 1006.54 1007.41 1008.28 1009.13 1009.95 1010.74 1011.50 1012.26 1013.02 1013.80 1014.58 1015.37 1016.13 1016.83 1017.43 1017.91 1018.25 1018.43 1018.47 1018.40 1018.24
1005.23 1004.66 1004.14 1003.63 1003.14 1002.67 1002.23 1001.82 1001.46 1001.16 1000.95 1000.82 1000.78 1000.84 1000.99 1001.25 1001.61 1002.08 1002.65 1003.31 1004.05 1004.86 1005.70 1006.57 1007.43 1008.28 1009.12 1009.94 1010.75 1011.58 1012.42 1013.28 1014.15 1015.03 1015.87 1016.64 1017.30 1017.82 1018.18 1018.38 1018.41 1018.31 1018.12
1005.62 1005.01 1004.41 1003.80 1003.19 1002.57 1001.95 1001.37 1000.84 1000.40 1000.05 999.82 999.72 999.75 999.90 1000.18 1000.58 1001.10 1001.73 1002.44 1003.22 1004.07 1004.94 1005.83 1006.73 1007.61 1008.48 1009.34 1010.20 1011.08 1011.98 1012.90 1013.83 1014.75 1015.64 1016.45 1017.14 1017.69 1018.06 1018.26 1018.30 1018.19 1017.97
1006.22 1005.60 1004.95 1004.26 1003.52 1002.75 1001.97 1001.20 1000.50 999.88 999.38 999.02 998.83 998.79 998.92 999.20 999.63 1000.19 1000.86 1001.63 1002.48 1003.38 1004.31 1005.25 1006.20 1007.13 1008.05 1008.96 1009.87 1010.79 1011.72 1012.67 1013.62 1014.56 1015.45 1016.26 1016.96 1017.51 1017.89 1018.10 1018.14 1018.03 1017.81
Thickness
5689 5688 5687 5687 5686 5685 5684 5684 5683 5682 5682 5681 5680 5680 5679 5678 5678 5677 5676 5676 5676 5675 5674 5673 5672 5671 5670 5669 5668 5668 5667 5666 5666 5665 5665 5664 5664 5663 5662 5661 5660 5658 5657
5684 5682 5681 5681 5680 5679 5678 5677 5677 5676 5675 5674 5674 5673 5673 5672 5671 5671 5670 5669 5668 5668 5667 5666 5665 5664 5663 5662 5661 5661 5660 5660 5659 5659 5658 5658 5658 5658 5657 5656 5655 5654 5653
5678 5677 5675 5674 5674 5673 5672 5671 5670 5669 5668 5667 5666 5666 5665 5665 5664 5664 5663 5662 5661 5660 5659 5658 5657 5656 5655 5655 5654 5654 5653 5653 5652 5652 5652 5651 5652 5651 5651 5650 5649 5649 5648
5672 5671 5669 5668 5667 5666 5665 5663 5662 5660 5659 5658 5658 5658 5657 5657 5656 5656 5655 5654 5653 5651 5650 5649 5649 5647 5647 5646 5646 5646 5645 5645 5645 5645 5644 5644 5644 5644 5644 5643 5643 5643 5642
5665 5664 5662 5661 5660 5658 5657 5655 5654 5652 5651 5649 5649 5649 5649 5648 5648 5648 5647 5646 5644 5643 5642 5640 5639 5638 5637 5637 5637 5637 5637 5637 5637 5637 5637 5636 5636 5636 5637 5636 5636 5636 5635
5657 5656 5655 5653 5652 5650 5648 5647 5645 5644 5642 5641 5641 5640 5639 5639 5639 5639 5638 5637 5636 5634 5633 5631 5629 5628 5627 5627 5627 5627 5628 5628 5628 5628 5628 5628 5628 5628 5628 5628 5628 5628 5628
5649 5648 5647 5645 5643 5642 5640 5638 5636 5634 5632 5631 5629 5628 5629 5629 5629 5629 5628 5627 5626 5625 5623 5622 5620 5619 5618 5617 5616 5617 5617 5618 5619 5619 5619 5620 5620 5620 5619 5620 5619 5619 5619
5641 5640 5639 5637 5635 5633 5631 5629 5627 5624 5622 5621 5618 5615 5614 5616 5618 5620 5618 5617 5616 5615 5613 5612 5610 5609 5608 5607 5607 5606 5606 5607 5608 5609 5610 5610 5610 5611 5610 5610 5610 5610 5610
5632 5632 5630 5628 5626 5624 5622 5620 5618 5616 5612 5610 5608 5605 5601 5602 5604 5608 5608 5607 5605 5604 5603 5602 5600 5599 5597 5596 5596 5595 5595 5596 5597 5597 5599 5600 5600 5600 5600 5600 5600 5600 5600
5624 5623 5622 5620 5617 5615 5614 5612 5610 5607 5604 5601 5598 5596 5594 5593 5590 5593 5595 5595 5594 5593 5592 5591 5590 5588 5587 5585 5585 5584 5584 5584 5585 5586 5587 5588 5589 5590 5590 5590 5590 5590 5590
5615 5614 5613 5610 5608 5606 5604 5603 5600 5598 5596 5593 5590 5587 5584 5582 5581 5578 5581 5582 5582 5582 5581 5580 5578 5577 5575 5574 5573 5573 5573 5572 5573 5573 5574 5575 5576 5577 5578 5579 5579 5579 5580
5605 5605 5604 5601 5599 5597 5595 5593 5591 5589 5586 5584 5582 5579 5576 5573 5571 5568 5568 5570 5570 5572 5570 5569 5567 5565 5563 5562 5561 5561 5561 5561 5561 5561 5562 5562 5563 5564 5565 5566 5567 5567 5569
5595 5594 5593 5591 5589 5587 5586 5584 5582 5580 5577 5575 5573 5570 5568 5566 5563 5560 5557 5557 5558 5560 5560 5559 5557 5554 5552 5550 5549 5549 5549 5549 5549 5549 5549 5550 5551 5552 5552 5554 5555 5555 5556
5585 5584 5583 5581 5579 5578 5576 5574 5572 5570 5568 5565 5563 5561 5558 5556 5553 5550 5546 5542 5543 5546 5547 5548 5546 5543 5541 5539 5537 5537 5537 5537 5536 5536 5537 5537 5538 5539 5540 5541 5542 5543 5544
5576 5574 5573 5571 5569 5567 5565 5563 5561 5559 5557 5554 5552 5550 5547 5545 5542 5539 5535 5531 5526 5528 5535 5537 5534 5533 5529 5527 5526 5524 5524 5524 5524 5524 5525 5526 5527 5528 5528 5529 5530 5530 5531
5565 5563 5561 5559 5558 5556 5554 5552 5550 5548 5546 5543 5540 5538 5535 5533 5530 5527 5523 5520 5516 5512 5516 5522 5520 5519 5517 5515 5513 5512 5511 5511 5511 5511 5512 5513 5514 5515 5515 5516 5516 5517 5518
5553 5551 5550 5548 5546 5545 5543 5540 5538 5536 5534 5532 5529 5526 5523 5520 5518 5515 5511 5508 5505 5501 5500 5507 5507 5506 5504 5502 5501 5499 5498 5498 5498 5499 5499 5500 5501 5501 5503 5503 5503 5504 5506
5541 5539 5537 5536 5534 5532 5530 5528 5526 5524 5522 5519 5517 5514 5511 5508 5506 5503 5499 5496 5493 5490 5488 5491 5496 5494 5492 5490 5489 5488 5487 5487 5487 5487 5487 5488 5488 5489 5490 5490 5491 5492 5494
5529 5527 5525 5523 5521 5519 5518 5516 5514 5512 5509 5507 5504 5500 5498 5495 5493 5490 5487 5485 5483 5481 5478 5477 5482 5482 5480 5478 5477 5477 5476 5476 5476 5476 5475 5476 5476 5477 5477 5478 5479 5481 5483
5516 5514 5513 5511 5509 5507 5505 5504 5502 5499 5497 5494 5492 5488 5485 5482 5480 5478 5476 5473 5471 5469 5467 5466 5468 5469 5468 5466 5463 5464 5466 5465 5465 5465 5464 5464 5465 5465 5466 5467 5468 5470 5472
5503 5501 5500 5498 5496 5494 5493 5491 5489 5487 5485 5482 5480 5476 5473 5471 5469 5467 5465 5463 5461 5459 5457 5455 5456 5457 5457 5454 5452 5451 5452 5455 5456 5454 5454 5454 5454 5455 5456 5456 5457 5459 5461
5489 5488 5486 5485 5483 5482 5482 5480 5477 5475 5473 5470 5468 5465 5463 5461 5459 5457 5455 5453 5451 5449 5447 5445 5446 5446 5447 5444 5441 5439 5439 5440 5445 5446 5442 5446 5444 5446 5447 5447 5448 5449 5452
5476 5474 5473 5471 5470 5469 5469 5467 5465 5462 5460 5457 5455 5452 5452 5451 5448 5446 5445 5444 5442 5440 5438 5436 5436 5436 5436 5435 5432 5431 5429 5429 5432 5433 5430 5436 5436 5437 5438 5439 5440 5441 5443
5463 5461 5460 5458 5457 5457 5456 5455 5453 5450 5448 5445 5442 5440 5440 5440 5438 5437 5437 5436 5435 5433 5431 5429 5428 5428 5427 5426 5423 5422 5421 5422 5424 5423 5419 5423 5427 5428 5431 5431 5431 5432 5434
5450 5448 5447 5445 5444 5443 5442 5441 5440 5438 5436 5434 5432 5431 5430 5430 5430 5429 5428 5428 5428 5427 5425 5423 5421 5420 5420 5418 5415 5412 5411 5409 5414 5417 5412 5411 5416 5418 5422 5423 5424 5424 5425
5437 5435 5434 5432 5431 5430 5430 5429 5428 5426 5424 5424 5423 5422 5422 5422 5422 5421 5419 5418 5419 5420 5418 5417 5415 5414 5412 5410 5407 5404 5402 5401 5402 5407 5407 5403 5406 5405 5412 5416 5415 5415 5416